Location: Bastogne Gables
(35.1554°N, 78.9900°W)
Time: 03:23:39
(UTC+00:00)

Cosmos 1939 Rocket - Pass Details

Date: 29 October 2020
Orbit: 532 x 584 km, 97.4° (Epoch: 26 November)

Event Time Altitude Azimuth Distance (km) Brightness Sun altitude
Rises 23:14:54 0° 158° (SSE) 2,734 6.2 -11.0°
Reaches altitude 10° 23:17:04 10° 154° (SSE) 1,834 5.3 -11.4°
Maximum altitude 23:20:57 56° 76° (ENE) 662 2.9 -12.2°
Drops below altitude 10° 23:24:48 10° 358° (N) 1,817 5.4 -13.0°
Sets 23:26:56 0° 354° (N) 2,707 6.3 -13.4°
